STARLINK-34198

Last updated on Thu Jul 03 2025 00:02:07 GMT+0000 (Coordinated Universal Time)

1 64388U 25127U 25183.58335648 -.01559405 00000+0 -18707-1 0 9991 2 64388 43.0003 155.3564 0001311 274.4023 343.9484 15.63121264 4200
UTC large
Height (km)
Speed (km/s)
/
Latitude / Longitude
Inclination (degrees)
Orbital Period (minutes)
Azimuth
Elevation
Range (km)
Doppler Factor

Next 0 passes for location: London (51.5072 / 0.1276)

Sorry there are no passes over London.